TimeCDT,TemperatureF,Dew PointF,Humidity,Sea Level PressureIn,VisibilityMPH,Wind Direction,Wind SpeedMPH,Gust SpeedMPH,PrecipitationIn,Events,Conditions,WindDirDegrees,DateUTC
12:12 AM,39.2,37.4,93,29.76,10.0,NW,8.1,-,N/A,,Mostly Cloudy,320,2013-04-07 05:12:00
12:32 AM,39.2,37.4,93,29.77,7.0,WNW,9.2,-,N/A,,Mostly Cloudy,300,2013-04-07 05:32:00
12:53 AM,37.4,35.6,93,29.78,7.0,WNW,9.2,-,N/A,,Scattered Clouds,290,2013-04-07 05:53:00
1:12 AM,37.4,35.6,93,29.78,7.0,NW,6.9,-,N/A,,Scattered Clouds,310,2013-04-07 06:12:00
1:32 AM,37.4,35.6,93,29.79,5.0,NW,6.9,-,N/A,,Mostly Cloudy,310,2013-04-07 06:32:00
1:53 AM,37.4,35.6,93,29.79,5.0,NW,9.2,-,N/A,,Overcast,320,2013-04-07 06:53:00
2:12 AM,35.6,35.6,100,29.79,5.0,NNW,6.9,-,N/A,,Overcast,330,2013-04-07 07:12:00
2:32 AM,35.6,35.6,100,29.79,3.0,NW,6.9,-,N/A,,Overcast,320,2013-04-07 07:32:00
2:53 AM,35.6,35.6,100,29.81,2.5,WNW,5.8,-,N/A,,Overcast,300,2013-04-07 07:53:00
3:12 AM,35.6,35.6,100,29.82,2.5,NW,5.8,-,N/A,,Overcast,310,2013-04-07 08:12:00
3:32 AM,35.6,35.6,100,29.82,2.5,NW,4.6,-,N/A,,Overcast,310,2013-04-07 08:32:00
3:52 AM,35.6,35.6,100,29.83,3.0,WNW,8.1,-,N/A,,Overcast,300,2013-04-07 08:52:00
4:13 AM,35.6,35.6,100,29.83,3.0,WNW,5.8,-,N/A,,Overcast,300,2013-04-07 09:13:00
4:32 AM,35.6,35.6,100,29.83,3.0,NW,4.6,-,N/A,,Overcast,310,2013-04-07 09:32:00
4:52 AM,35.6,35.6,100,29.83,4.0,NW,4.6,-,N/A,,Overcast,320,2013-04-07 09:52:00
5:12 AM,35.6,35.6,100,29.84,3.0,NW,3.5,-,N/A,,Overcast,320,2013-04-07 10:12:00
5:32 AM,35.6,35.6,100,29.84,2.5,NW,3.5,-,N/A,,Overcast,310,2013-04-07 10:32:00
5:52 AM,35.6,35.6,100,29.85,2.5,WNW,3.5,-,N/A,,Overcast,300,2013-04-07 10:52:00
6:12 AM,35.6,35.6,100,29.85,3.0,NW,6.9,-,N/A,,Overcast,320,2013-04-07 11:12:00
6:32 AM,35.6,35.6,100,29.86,3.0,NW,5.8,-,N/A,,Overcast,320,2013-04-07 11:32:00
6:53 AM,35.6,33.8,93,29.87,5.0,NW,6.9,-,N/A,,Overcast,320,2013-04-07 11:53:00
7:12 AM,33.8,33.8,100,29.88,4.0,NNW,6.9,-,N/A,,Overcast,340,2013-04-07 12:12:00
7:32 AM,33.8,33.8,100,29.88,2.0,NW,3.5,-,N/A,,Overcast,320,2013-04-07 12:32:00
7:53 AM,33.8,33.8,100,29.89,2.0,NNW,6.9,-,N/A,,Overcast,340,2013-04-07 12:53:00
8:12 AM,33.8,33.8,100,29.89,1.8,North,5.8,-,N/A,,Overcast,360,2013-04-07 13:12:00
8:32 AM,33.8,33.8,100,29.90,2.0,WNW,3.5,-,N/A,,Overcast,290,2013-04-07 13:32:00
8:53 AM,33.8,33.8,100,29.91,2.0,WNW,4.6,-,N/A,,Overcast,300,2013-04-07 13:53:00
9:12 AM,33.8,33.8,100,29.92,2.5,Calm,Calm,-,N/A,,Overcast,0,2013-04-07 14:12:00
9:32 AM,33.8,33.8,100,29.92,2.5,North,5.8,-,N/A,,Overcast,350,2013-04-07 14:32:00
9:53 AM,33.8,33.8,100,29.93,2.0,Calm,Calm,-,N/A,,Overcast,0,2013-04-07 14:53:00
10:12 AM,35.6,33.8,93,29.92,2.5,North,4.6,-,N/A,,Overcast,360,2013-04-07 15:12:00
10:52 AM,35.6,33.8,93,29.94,4.0,Calm,Calm,-,N/A,,Overcast,0,2013-04-07 15:52:00
11:12 AM,35.6,35.6,100,29.94,4.0,Calm,Calm,-,N/A,,Overcast,0,2013-04-07 16:12:00
11:33 AM,35.6,35.6,100,29.95,5.0,Calm,Calm,-,N/A,,Overcast,0,2013-04-07 16:33:00
11:52 AM,37.4,35.6,93,29.95,5.0,Calm,Calm,-,N/A,,Overcast,0,2013-04-07 16:52:00
12:12 PM,37.4,35.6,93,29.93,5.0,Calm,Calm,-,N/A,,Overcast,0,2013-04-07 17:12:00
12:32 PM,39.2,35.6,87,29.92,5.0,East,5.8,-,N/A,,Overcast,80,2013-04-07 17:32:00
12:52 PM,39.2,37.4,93,29.91,7.0,East,8.1,-,N/A,,Overcast,90,2013-04-07 17:52:00
1:12 PM,42.8,37.4,81,29.90,7.0,East,8.1,-,N/A,,Scattered Clouds,100,2013-04-07 18:12:00
1:32 PM,44.6,37.4,76,29.89,10.0,ESE,8.1,-,N/A,,Clear,110,2013-04-07 18:32:00
1:52 PM,46.4,39.2,76,29.88,7.0,ESE,8.1,-,N/A,,Clear,110,2013-04-07 18:52:00
2:12 PM,48.2,39.2,71,29.88,10.0,SE,8.1,-,N/A,,Clear,140,2013-04-07 19:12:00
2:32 PM,48.2,39.2,71,29.87,10.0,ESE,8.1,-,N/A,,Clear,110,2013-04-07 19:32:00
2:43 PM,50.0,41.0,71,29.85,10.0,ESE,9.2,-,N/A,,Clear,120,2013-04-07 19:43:00
3:58 PM,51.8,42.8,71,29.84,10.0,SSE,13.8,-,N/A,,Clear,160,2013-04-07 20:58:00
4:12 PM,51.8,44.6,76,29.84,10.0,SE,12.7,-,N/A,,Scattered Clouds,140,2013-04-07 21:12:00
4:32 PM,51.8,42.8,71,29.84,10.0,SSE,15.0,-,N/A,,Scattered Clouds,150,2013-04-07 21:32:00
4:52 PM,51.8,42.8,71,29.83,7.0,SSE,13.8,-,N/A,,Clear,150,2013-04-07 21:52:00
5:12 PM,51.8,44.6,76,29.82,10.0,SE,11.5,-,N/A,,Scattered Clouds,140,2013-04-07 22:12:00
5:33 PM,53.6,44.6,72,29.81,10.0,SSE,12.7,17.3,N/A,,Scattered Clouds,150,2013-04-07 22:33:00
5:52 PM,53.6,44.6,72,29.79,10.0,ESE,13.8,-,N/A,,Scattered Clouds,120,2013-04-07 22:52:00
6:12 PM,53.6,44.6,72,29.79,7.0,SE,11.5,-,N/A,,Scattered Clouds,130,2013-04-07 23:12:00
6:33 PM,51.8,44.6,76,29.79,10.0,SE,10.4,-,N/A,,Mostly Cloudy,130,2013-04-07 23:33:00
6:52 PM,51.8,44.6,76,29.78,10.0,SE,9.2,-,N/A,,Overcast,130,2013-04-07 23:52:00
7:12 PM,51.8,44.6,76,29.78,10.0,ESE,9.2,-,N/A,,Mostly Cloudy,120,2013-04-08 00:12:00
7:32 PM,51.8,44.6,76,29.78,10.0,SE,8.1,-,N/A,,Mostly Cloudy,130,2013-04-08 00:32:00
7:52 PM,51.8,44.6,76,29.77,10.0,ESE,6.9,-,N/A,,Mostly Cloudy,110,2013-04-08 00:52:00
8:12 PM,51.8,44.6,76,29.77,10.0,East,8.1,-,N/A,,Overcast,100,2013-04-08 01:12:00
8:32 PM,51.8,44.6,76,29.78,10.0,East,3.5,-,N/A,,Overcast,100,2013-04-08 01:32:00
8:52 PM,51.8,44.6,76,29.79,10.0,ESE,4.6,-,N/A,,Overcast,110,2013-04-08 01:52:00
9:12 PM,50.0,44.6,82,29.80,7.0,Calm,Calm,-,N/A,Rain,Light Rain,0,2013-04-08 02:12:00
9:32 PM,48.2,46.4,93,29.80,7.0,East,3.5,-,0.01,Rain,Light Rain,90,2013-04-08 02:32:00
9:52 PM,48.2,46.4,93,29.78,7.0,ENE,6.9,-,N/A,Rain,Light Rain,70,2013-04-08 02:52:00
10:12 PM,48.2,46.4,93,29.76,5.0,NE,9.2,-,N/A,Rain,Light Rain,50,2013-04-08 03:12:00
10:33 PM,48.2,46.4,93,29.75,5.0,ENE,10.4,-,0.01,Rain,Light Rain,60,2013-04-08 03:33:00
10:52 PM,46.4,46.4,100,29.74,5.0,NE,8.1,-,0.01,Rain,Rain,50,2013-04-08 03:52:00
11:12 PM,46.4,44.6,93,29.73,5.0,ENE,9.2,-,0.02,Rain,Rain,70,2013-04-08 04:12:00
11:32 PM,46.4,44.6,93,29.74,7.0,NE,6.9,-,0.02,Rain,Light Rain,50,2013-04-08 04:32:00
11:52 PM,46.4,44.6,93,29.75,5.0,North,4.6,-,N/A,Rain,Light Rain,10,2013-04-08 04:52:00